This demonstration page uses our WeatherBlox Daily Observations layout. Learn more.

39.92423, -83.80882

Hourly Observations for September 7, 2016

Temp ( °F °C ) Dew Point ( °F °C ) Humidity (%) Winds ( mph kmh ) Pressure ( in mb ) Visibility ( mi km ) Precip ( " mm )
12:56 am 00:56 Clear 72 22.2 67 19.4 84 84 SW 6 9 30.12 1020 10 16.0934 0 0
1:56 am 01:56 Clear 71 21.7 67 19.4 87 87 S 3 6 30.12 1020 10 16.0934 0 0
2:56 am 02:56 Clear 69 20.6 67 19.4 93 93 SW 8 13 30.11 1020 10 16.0934 0 0
3:56 am 03:56 Clear 68 20 66 18.9 93 93 SW 7 11 30.11 1020 10 16.0934 0 0
4:56 am 04:56 Clear 68 20 66 18.9 93 93 SW 5 7 30.12 1020 10 16.0934 0 0
5:56 am 05:56 Clear 68 20 66 18.9 93 93 SW 3 6 30.13 1020 10 16.0934 0 0
6:56 am 06:56 Clear 66 18.9 65 18.3 96 96 W 5 7 30.13 1020 10 16.0934 0 0
7:56 am 07:56 Sunny 69 20.6 67 19.4 93 93 SW 3 6 30.15 1021 10 16.0934 0 0
8:56 am 08:56 Sunny 74 23.3 70 21.1 88 88 SW 6 9 30.15 1021 10 16.0934 0 0
9:56 am 09:56 Sunny 80 26.7 71 21.7 74 74 WSW 8 13 30.15 1021 10 16.0934 0 0
10:56 am 10:56 Sunny 82 27.8 73 22.8 74 74 WSW 7 11 30.15 1021 10 16.0934 0 0
11:56 am 11:56 Sunny 85 29.4 73 22.8 68 68 WSW 8 13 30.14 1021 10 16.0934 0 0
12:56 pm 12:56 Cloudy 86 30 73 22.8 65 65 WSW 9 15 30.12 1020 10 16.0934 0 0
1:56 pm 13:56 Mostly Cloudy 86 30 74 23.3 67 67 SSW 9 15 30.11 1020 10 16.0934 0 0
2:56 pm 14:56 Partly Cloudy 87 30.6 74 23.3 65 65 SW 14 22 30.08 1019 10 16.0934 0 0
3:56 pm 15:56 Partly Cloudy 86 30 72 22.2 63 63 WSW 16 26 30.07 1018 10 16.0934 0 0
4:56 pm 16:56 Partly Cloudy 87 30.6 73 22.8 63 63 SW 14 22 30.06 1018 10 16.0934 0 0
5:56 pm 17:56 Partly Cloudy 86 30 71 21.7 61 61 SW 13 20 30.05 1018 10 16.0934 0 0
6:56 pm 18:56 Sunny 84 28.9 70 21.1 63 63 WSW 10 17 30.04 1017 10 16.0934 0 0
8:56 pm 20:56 Clear 75 23.9 70 21.1 84 84 SW 6 9 30.05 1018 10 16.0934 0 0
9:56 pm 21:56 Clear 75 23.9 69 20.6 82 82 SSW 5 7 30.04 1017 10 16.0934 0 0
10:56 pm 22:56 Clear 74 23.3 69 20.6 85 85 SW 6 9 30.04 1017 10 16.0934 0 0
11:56 pm 23:56 Clear 74 23.3 68 20 82 82 SW 6 9 30.03 1017 10 16.0934 0 0

Powered by AerisWeather